Regional Weather Roundup
Issued by NWS

Home | Current Version | Previous Version | Graphics & Text | Print | Product List | Glossary On
Versions: 1 2 3 4 5 6 7 8 9 10 11 12 13 14 15 16 17 18 19 20 21 22 23 24 25 26 27 28 29 30 31 32 33 34 35 36 37 38 39 40 41 42 43 44 45 46 47 48 49 50
275
ASUS43 KBIS 131002
RWRND

NORTH DAKOTA REGIONAL WEATHER ROUNDUP
NATIONAL WEATHER SERVICE BISMARCK ND
400 AM CST SAT FEB 13 2016

NOTE: "FAIR" INDICATES FEW OR NO CLOUDS BELOW 12,000 FEET WITH NO
SIGNIFICANT WEATHER AND/OR OBSTRUCTIONS TO VISIBILITY.


NDZ001>003-009>011-017-131100-
NORTHWEST NORTH DAKOTA

CITY           SKY/WX    TMP DP  RH WIND       PRES   REMARKS
WILLISTON      LGT SNOW  13   8  81 SE14G20   30.19F WCI  -2
MINOT          CLOUDY     8  -5  55 SE15      30.33F WCI  -9
MINOT AFB      CLOUDY     6  -3  67 SE15      30.33F WCI -12
$$

NDZ018>021-031>035-040>046-131100-
SOUTHWEST NORTH DAKOTA

CITY           SKY/WX    TMP DP  RH WIND       PRES   REMARKS
BISMARCK       CLOUDY     9  -1  64 SE15      30.38F WCI  -8
DICKINSON      CLOUDY    11   7  84 SE21G29   30.14F WCI  -8
GARRISON         N/A      6   1  80 SE14      30.32F WCI -11
HETTINGER ARPT CLOUDY    13   9  84 SE15      30.18F WCI  -3
$$

NDZ004>008-012>016-024-026-027-054-131100-
NORTHEAST NORTH DAKOTA

CITY           SKY/WX    TMP DP  RH WIND       PRES   REMARKS
GRAND FORKS    CLOUDY    -8 -14  74 S5        30.61F WCI -19
GRND FRKS AFB  CLOUDY   -10 -16  74 S3        30.60F
DEVILS LAKE    CLOUDY   -10 -14  82 SE7       30.49F WCI -25
$$

NDZ022-023-025-028>030-036>039-047>053-131100-
SOUTHEAST NORTH DAKOTA

CITY           SKY/WX    TMP DP  RH WIND       PRES   REMARKS
FARGO          CLOUDY    -7 -12  79 SE3       30.63F
JAMESTOWN      CLOUDY    -4 -12  68 SE9       30.49F WCI -20
$$





USA.gov is the U.S. government's official web portal to all federal, state and local government web resources and services.